FW2916 Weather Reports


time (UTC)temp
C
wind
direction
speed
KPH
gust
KPH
rain 1hr
cm
rain 24hr
cm
rain mn
cm
humidity
%
barometer
mb
20260906174548 36 75 3.2 6.4 0.00 0.00 0.00 53 1015.1
20260906173043 36 0 0.0 8.0 0.00 0.00 0.00 52 1015.5
20260906171555 36 111 0.0 6.4 0.00 0.00 0.00 53 1015.6
20260906170052 35 94 3.2 9.7 0.00 0.00 0.00 54 1015.9
20260906164549 35 10 1.6 9.7 0.00 0.00 0.00 56 1016.1
20260906163045 35 13 0.0 6.4 0.00 0.00 0.00 59 1016.0
20260906161541 34 11 0.0 6.4 0.00 0.00 0.00 61 1016.1
20260906160054 33 57 1.6 6.4 0.00 0.00 0.00 62 1015.9
20260906154556 33 98 1.6 6.4 0.00 0.00 0.00 65 1015.8
20260906153042 33 0 0.0 4.8 0.00 0.00 0.00 67 1015.8
20260906151542 32 0 0.0 4.8 0.00 0.00 0.00 68 1015.9
20260906150056 32 212 0.0 6.4 0.00 0.00 0.00 70 1015.9
20260906144542 31 0 1.6 6.4 0.00 0.00 0.00 72 1016.0
20260906143041 30 129 1.6 6.4 0.00 0.00 0.00 72 1015.9
20260906141541 30 108 0.0 4.8 0.00 0.00 0.00 73 1015.9
20260906140047 29 117 0.0 3.2 0.00 0.00 0.00 75 1015.8
20260906134555 28 98 0.0 3.2 0.00 0.00 0.00 77 1015.9
20260906133106 27 106 1.6 6.4 0.00 0.00 0.00 78 1015.6
20260906131553 26 0 0.0 3.2 0.00 0.00 0.00 80 1015.6
20260906130049 25 0 0.0 0.0 0.00 0.00 0.00 85 1015.3
20260906124543 23 0 0.0 0.0 0.00 0.00 0.00 89 1015.1
20260906123042 23 0 0.0 0.0 0.00 0.00 0.00 90 1014.8
20260906121551 23 0 0.0 0.0 0.00 0.00 0.00 92 1014.7
20260906120048 23 0 0.0 0.0 0.00 0.00 0.00 90 1014.7
20260906114548 23 0 0.0 0.0 0.00 0.00 0.00 90 1014.8
20260906113042 23 0 0.0 0.0 0.00 0.00 0.00 89 1014.7
20260906111554 23 0 0.0 0.0 0.00 0.00 0.00 88 1014.6
20260906110046 23 0 0.0 0.0 0.00 0.00 0.00 88 1014.6
20260906104551 23 0 0.0 0.0 0.00 0.00 0.00 89 1014.4
20260906103053 23 0 0.0 0.0 0.00 0.00 0.00 92 1014.4
20260906101550 23 0 0.0 0.0 0.00 0.00 0.00 92 1014.3
20260906100047 23 0 0.0 0.0 0.00 0.00 0.00 90 1014.2
20260906094540 23 0 0.0 0.0 0.00 0.00 0.00 91 1014.1
20260906093108 23 0 0.0 0.0 0.00 0.00 0.00 89 1014.0
20260906091553 23 0 0.0 0.0 0.00 0.00 0.00 88 1014.0
20260906090050 24 0 0.0 0.0 0.00 0.00 0.00 87 1014.0
20260906084542 24 0 0.0 0.0 0.00 0.00 0.00 87 1013.9
20260906083052 23 0 0.0 0.0 0.00 0.00 0.00 86 1013.8
20260906081553 23 0 0.0 0.0 0.00 0.00 0.00 87 1013.7
20260906080047 23 0 0.0 0.0 0.00 0.00 0.00 86 1013.7
20260906074545 23 0 0.0 0.0 0.00 0.00 0.00 86 1013.7
20260906073041 24 0 0.0 0.0 0.00 0.00 0.00 86 1013.7
20260906071552 24 0 0.0 0.0 0.00 0.00 0.00 85 1013.7
20260906070049 24 0 0.0 0.0 0.00 0.00 0.00 85 1013.8
20260906064542 25 0 0.0 0.0 0.00 0.00 0.00 84 1013.8
20260906063043 25 0 0.0 0.0 0.00 0.00 0.00 83 1013.9
20260906061557 25 0 0.0 0.0 0.00 0.00 0.00 82 1014.0
20260906060049 25 0 0.0 0.0 0.00 0.00 0.00 81 1014.1
20260906054547 25 0 0.0 0.0 0.00 0.00 0.00 82 1014.2
20260906053044 25 0 0.0 0.0 0.00 0.00 0.00 80 1014.4
20260906051552 26 0 0.0 0.0 0.00 0.00 0.00 79 1014.2
20260906050109 26 0 0.0 0.0 0.00 0.00 0.00 79 1014.2
20260906044542 26 0 0.0 0.0 0.00 0.00 0.00 78 1014.2
20260906043051 26 0 0.0 0.0 0.00 0.00 0.00 80 1014.2
20260906041550 26 0 0.0 0.0 0.00 0.00 0.00 79 1014.1
20260906040048 27 0 0.0 0.0 0.00 0.00 0.00 78 1014.1
20260906034545 27 0 0.0 0.0 0.00 0.00 0.00 75 1013.9
20260906033105 28 0 0.0 0.0 0.00 0.00 0.00 74 1013.7
20260906031548 28 0 0.0 0.0 0.00 0.00 0.00 73 1013.8
20260906030043 28 0 0.0 0.0 0.00 0.00 0.00 74 1013.5
20260906024602 28 0 0.0 0.0 0.00 0.00 0.00 74 1013.4
20260906023048 28 0 0.0 0.0 0.00 0.00 0.00 73 1013.1
20260906021555 28 0 0.0 0.0 0.00 0.00 0.00 72 1013.1
20260906020055 30 0 0.0 0.0 0.00 0.00 0.00 70 1012.8
20260906014555 30 0 0.0 0.0 0.00 0.00 0.00 69 1012.5
20260906013043 30 0 0.0 0.0 0.00 0.00 0.00 66 1012.5
20260906011542 31 0 0.0 0.0 0.00 0.00 0.00 65 1012.4
20260906010054 32 0 0.0 0.0 0.00 0.00 0.00 63 1012.3
20260906004607 32 0 0.0 0.0 0.00 0.00 0.00 61 1012.2
20260906003043 33 0 0.0 4.8 0.00 0.00 0.00 59 1012.3
20260906001542 33 14 0.0 6.4 0.00 0.00 0.00 57 1012.3
20260906000053 35 0 0.0 4.8 0.00 0.00 0.00 56 1012.3
20260905234559 35 96 0.0 6.4 0.00 0.00 0.00 53 1012.1
20260905233044 36 141 0.0 3.2 0.00 0.00 0.00 48 1012.2
20260905231555 37 0 0.0 4.8 0.00 0.00 0.00 44 1012.1
20260905230115 38 0 0.0 6.4 0.00 0.00 0.00 43 1012.0
20260905224542 38 224 0.0 3.2 0.00 0.00 0.00 40 1012.1
20260905223052 38 0 0.0 4.8 0.00 0.00 0.00 42 1012.1
20260905221547 37 155 0.0 1.6 0.00 0.00 0.00 44 1012.2
20260905220044 37 0 0.0 3.2 0.00 0.00 0.00 44 1012.4
20260905214553 38 210 0.0 3.2 0.00 0.00 0.00 41 1012.5
20260905213052 38 122 0.0 6.4 0.00 0.00 0.00 43 1012.7
20260905211554 38 98 0.0 4.8 0.00 0.00 0.00 42 1012.7
20260905210047 39 218 0.0 6.4 0.00 0.00 0.00 42 1012.8
20260905204552 39 238 1.6 6.4 0.00 0.00 0.00 41 1013.0
20260905203055 39 176 0.0 4.8 0.00 0.00 0.00 42 1013.2
20260905201548 38 0 0.0 4.8 0.00 0.00 0.00 43 1013.5
20260905200042 38 0 0.0 4.8 0.00 0.00 0.00 46 1013.7
20260905194552 38 222 1.6 8.0 0.00 0.00 0.00 45 1013.8
20260905193104 38 94 1.6 11.3 0.00 0.00 0.00 45 1013.8
20260905191547 37 0 0.0 4.8 0.00 0.00 0.00 46 1014.0
20260905190044 37 39 1.6 4.8 0.00 0.00 0.00 50 1014.3
20260905184602 36 89 0.0 3.2 0.00 0.00 0.00 47 1014.5
20260905183056 38 69 1.6 8.0 0.00 0.00 0.00 44 1014.6
20260905181547 37 129 3.2 6.4 0.00 0.00 0.00 46 1014.8
20260905180043 38 0 1.6 11.3 0.00 0.00 0.00 46 1015.0